, MO

(GMT )
Kansas City

Weather History for KMKC - January, 2014

Change the Weather History Date:

Wednesday, January 8, 2014

  Actual Average Record
Temperature  
Mean Temperature 24 °F -  
Max Temperature 28 °F 37 °F 71 °F (2003)
Min Temperature 18 °F 21 °F 3 °F (2015)
Degree Days  
Heating Degree Days 42    
Moisture  
Dew Point 13 °F    
Average Humidity 65    
Maximum Humidity 74    
Minimum Humidity 55    
Precipitation  
Precipitation 0.00 in - - ()
Sea Level Pressure  
Sea Level Pressure 30.34 in    
Wind  
Wind Speed 8 mph (ENE)    
Max Wind Speed 14 mph    
Max Gust Speed -    
Visibility 10 miles    
Events      
Averages and records for this station are not official NWS values.
T = Trace of Precipitation, MM = Missing Value Source: NWS Daily Summary

Daily Weather History Graph

Daily Weather History Graph

Search for Another Location

Airport or City:

Astronomy

Jan. 08, 2014 Rise Set
Actual Time 7:37 AM CST 5:12 PM CST
Civil Twilight 7:08 AM CST 5:42 PM CST
Nautical Twilight 6:34 AM CST 6:15 PM CST
Astronomical Twilight 6:02 AM CST 6:48 PM CST
Moon 12:04 PM CST (1/8) 12:45 AM CST (1/8)
Length of Visible Light 10h 34m
Length of Day
9h 35m
First Quarter, 56% of the Moon is Illuminated
Jan 8
First Quarter
Jan 15
Full
Jan 23
Last Quarter
Jan 30
New
Feb 6
First Quarter

Hourly Weather History & Observations

Time (CST) Temp. Windchill Dew Point Humidity Pressure Visibility Wind Dir Wind Speed Gust Speed Precip Events Conditions
12:54 AM 25.0 °F 19.3 °F 17.1 °F 72% 30.24 in 10.0 mi NE 4.6 mph - N/A   Clear
1:54 AM 25.0 °F 19.3 °F 17.1 °F 72% 30.25 in 10.0 mi ENE 4.6 mph - N/A   Partly Cloudy
2:54 AM 25.0 °F 18.1 °F 16.0 °F 69% 30.26 in 10.0 mi ENE 5.8 mph - N/A   Clear
3:54 AM 25.0 °F 18.1 °F 15.1 °F 66% 30.27 in 10.0 mi ENE 5.8 mph - N/A   Clear
4:54 AM 25.0 °F 17.1 °F 14.0 °F 63% 30.28 in 10.0 mi East 6.9 mph - N/A   Clear
5:54 AM 24.1 °F 16.0 °F 14.0 °F 65% 30.28 in 10.0 mi ENE 6.9 mph - N/A   Mostly Cloudy
6:54 AM 23.0 °F 13.9 °F 14.0 °F 68% 30.30 in 10.0 mi ENE 8.1 mph - N/A   Overcast
7:54 AM 23.0 °F 13.9 °F 12.0 °F 63% 30.33 in 10.0 mi ENE 8.1 mph - N/A   Overcast
8:54 AM 23.0 °F 12.4 °F 10.9 °F 60% 30.36 in 10.0 mi ENE 10.4 mph - N/A   Overcast
9:54 AM 24.1 °F 12.5 °F 12.0 °F 60% 30.38 in 10.0 mi ENE 12.7 mph - N/A   Mostly Cloudy
10:54 AM 25.0 °F 14.2 °F 12.0 °F 58% 30.38 in 10.0 mi East 11.5 mph - N/A   Partly Cloudy
11:54 AM 26.1 °F 15.6 °F 12.0 °F 55% 30.36 in 10.0 mi ENE 11.5 mph - N/A   Mostly Cloudy
12:54 PM 27.0 °F 17.3 °F 12.9 °F 56% 30.35 in 10.0 mi NE 10.4 mph - N/A   Mostly Cloudy
1:54 PM 28.0 °F 18.1 °F 14.0 °F 56% 30.33 in 10.0 mi ENE 11.5 mph - N/A   Overcast
2:54 PM 28.9 °F 19.2 °F 15.1 °F 56% 30.34 in 10.0 mi ENE 11.5 mph - N/A   Clear
3:54 PM 26.1 °F 15.0 °F 14.0 °F 60% 30.36 in 10.0 mi ENE 12.7 mph - N/A   Overcast
4:54 PM 24.1 °F 12.5 °F 14.0 °F 65% 30.38 in 10.0 mi ENE 12.7 mph - N/A   Mostly Cloudy
5:54 PM 23.0 °F 11.7 °F 14.0 °F 68% 30.38 in 10.0 mi ENE 11.5 mph - N/A   Mostly Cloudy
6:54 PM 21.9 °F 9.2 °F 12.9 °F 68% 30.39 in 10.0 mi ENE 13.8 mph - N/A   Overcast
7:54 PM 21.0 °F 8.1 °F 12.9 °F 71% 30.41 in 10.0 mi East 13.8 mph - N/A   Partly Cloudy
8:54 PM 19.9 °F 6.7 °F 12.9 °F 74% 30.41 in 10.0 mi ENE 13.8 mph - N/A   Clear
9:54 PM 19.9 °F 6.7 °F 12.0 °F 71% 30.41 in 10.0 mi ENE 13.8 mph - N/A   Clear
10:54 PM 19.0 °F 7.5 °F 10.9 °F 71% 30.40 in 10.0 mi ENE 10.4 mph - N/A   Clear
11:54 PM 18.0 °F 7.7 °F 10.9 °F 74% 30.40 in 10.0 mi ENE 8.1 mph - N/A   Mostly Cloudy